TIANWANG 1C (TW-1C)
1 40926U 15051B   18114.58586005  .00012667  00000-0  24181-3 0  9996
2 40926  97.1897 157.1945 0011939 110.6051  41.6725 15.48187534145015
TIANWANG 1B (TW-1B)
1 40927U 15051C   18114.56529565  .00012317  00000-0  24525-3 0  9997
2 40927  97.1978 157.0333 0011742 120.3065  36.9818 15.46976924144927
TIANWANG 1A (TW-1A)
1 40928U 15051D   18114.56142838  .00004935  00000-0  13200-3 0  9997
2 40928  97.1907 149.6043 0012957 147.9146   5.3742 15.38428250144537
LAPAN A2
1 40931U 15052B   18111.99623529  .00000638  00000-0 -26985-6 0  9991
2 40931   5.9989 190.8046 0013778 296.3879  63.5174 14.76571525138682
LQSAT
1 40958U 15057A   18114.50214367  .00000041  00000-0  14135-4 0  9990
2 40958  97.9425 188.8156 0018891 145.0629 215.1824 14.73026814136947
CHUBUSAT 2
1 41338U 16012B   18114.54474014  .00000391  00000-0  23860-4 0  9999
2 41338  31.0036 294.4579 0014054 262.3844  97.5195 14.99960693119774
CHUBUSAT 3
1 41339U 16012C   18114.56522147  .00000436  00000-0  27232-4 0  9990
2 41339  31.0119 293.0000 0013954 269.6456  90.2602 15.00150287119763
OUFTI-1
1 41458U 16025C   18114.36909006  .00002417  00000-0  12984-3 0  9995
2 41458  98.1411 174.3311 0169755 328.5828  30.5337 15.04512765109341
E-STAR-2
1 41459U 16025D   18114.36660332  .00002159  00000-0  11703-3 0  9993
2 41459  98.1419 174.1913 0170561 329.2572  29.8734 15.04256367109331
AAUSAT 4
1 41460U 16025E   18114.39516862  .00001882  00000-0  10176-3 0  9991
2 41460  98.1343 174.6392 0161797 325.5653  33.5170 15.05622650109390
NUSAT 1
1 41557U 16033B   18114.41077847  .00001561  00000-0  59417-4 0  9991
2 41557  97.4370 198.7295 0013466 354.8808   5.2291 15.28209469105945
BEESAT 4
1 41619U 16040W   18114.15976916  .00001575  00000-0  71984-4 0  9992
2 41619  97.4196 178.0446 0013157  64.5572 295.7024 15.21963853 89879
PRATHAM
1 41783U 16059A   18113.89825571  .00000064  00000-0  21851-4 0  9994
2 41783  98.1226 176.3204 0032235 265.8357  93.9161 14.62914844 84023
ALSAT 1N
1 41789U 16059G   18114.37963150  .00000113  00000-0  30709-4 0  9997
2 41789  98.1231 177.9076 0026944 256.6376 103.1824 14.64144923 84146
NAYIF 1
1 42017U 17008BX  18113.87490362  .00001730  00000-0  73813-4 0  9990
2 42017  97.4525 179.2474 0005932 196.0080 164.0971 15.24265665 65792
LILACSAT-1
1 42725U 98067ME  18114.51733395  .00022599  00000-0  21308-3 0  9995
2 42725  51.6359 271.3406 0004008  23.1089 337.0087 15.66961280 52097
MAX VALIER SAT
1 42778U 17036P   18113.91424353 +.00001169 +00000-0 +55508-4 0  9994
2 42778 097.4086 174.5162 0011032 257.7545 102.2455 15.21186125046250
